Regional Weather Roundup
Issued by NWS

Home | Current Version | Previous Version | Text Only | Print | Product List | Glossary Off
Versions: 1 2 3 4 5 6 7 8 9 10 11 12 13 14 15 16 17 18 19 20 21 22 23 24 25 26 27 28 29 30 31 32 33 34 35 36 37 38 39 40 41 42 43 44 45 46 47 48 49 50

000
ASUS43 KIND 301009
RWRIN

WEATHER ROUNDUP FOR INDIANA
NATIONAL WEATHER SERVICE INDIANAPOLIS IN
600 AM EDT SAT AUG 30 2014

NOTE: "FAIR" INDICATES FEW OR NO CLOUDS BELOW 12,000 FEET WITH NO
SIGNIFICANT WEATHER AND/OR OBSTRUCTIONS TO VISIBILITY.

* - STATION DOES NOT REPORT WEATHER SUCH AS PRECIPITATION OR FOG.

+ - STATION NOT QUALITY CONTROLLED BY THE NATIONAL WEATHER SERVICE.
    USE DATA WITH CAUTION...ESPECIALLY DEWPOINT AND RELATIVE
    HUMIDITY OBSERVATIONS.

INZ001>003-010>013-019-020-301100-
NORTHWEST INDIANA

CITY           SKY/WX    TMP DP  RH WIND       PRES   REMARKS
GARY /AIRPORT/ PTCLDY    75  70  83 S13       29.87S
KNOX *+        MOCLDY    72  66  83 S7        29.90S
LA PORTE +     MOCLDY    71  68  88 S8        29.90S
MICHIGAN CITY+ CLOUDY    72  64  78 S9G16     29.88S
MONTICELLO +   CLOUDY    73  67  84 S7        29.92S
RENSSELAER +   CLOUDY    72  70  94 S9        29.91S
VALPARAISO     MOCLDY    73  68  84 S10       29.89F

$$

LMZ046-743>745-301100-
SOUTHERN LAKE MICHIGAN

STATION/POSITION TIME  TEMP WIND        PRES
                       AIR  DIR/SP/G
                 (UTC) (F)  (DEG/KT/KT) (MB)
MICHIGAN CITY    1000   74  160/ 14/ 19   N/A

$$

INZ004-005-014>016-021>024-301100-
NORTH CENTRAL INDIANA

CITY           SKY/WX    TMP DP  RH WIND       PRES   REMARKS
GOSHEN         PTCLDY    74  66  76 S13       29.92F
LOGANSPORT +   CLOUDY    72  63  73 S7        29.95S
PERU/GRISSOM   CLOUDY    73  69  89 S8        29.95S
ROCHESTER +    PTCLDY    73  68  83 S9        29.94S
SOUTH BEND     MOCLDY    73  67  81 S9        29.91R
WARSAW +       MOCLDY    72  64  78 S5        29.94S

$$

INZ006>009-017-018-025>027-301100-
NORTHEAST INDIANA

CITY           SKY/WX    TMP DP  RH WIND       PRES   REMARKS
ANGOLA *+      CLEAR     66  57  72 S3        29.95F
AUBURN +       PTCLDY    70  63  78 CALM      29.97S
FORT WAYNE     PTCLDY    70  64  81 S10       29.98R
HUNTINGTON +   PTCLDY    69  65  85 S6        29.97S

$$

INZ028-029-035-036-043>045-051>053-301100-
WEST CENTRAL INDIANA

CITY           SKY/WX    TMP DP  RH WIND       PRES   REMARKS
GREENCASTLE +  MOCLDY    72  66  83 S3        29.99R
LAFAYETTE      CLOUDY    72  67  84 S7        29.93S
TERRE HAUTE    CLOUDY    73  67  81 S7        29.97R

$$

INZ030>032-037>040-046>048-054>057-064-065-301100-
CENTRAL INDIANA

CITY           SKY/WX    TMP DP  RH WIND       PRES   REMARKS
CP ATTERBURY + MOCLDY    68  63  83 SE3       30.01S
FRANKFORT +    MOCLDY    73  66  80 S5        29.97S
GREENWOOD *+   CLOUDY    72  66  83 S6        30.01R
INDIANAPOLIS   MOCLDY    72  63  73 S8        29.97S
-EAGLE CREEK   MOCLDY    73  63  70 S5        29.98S
KOKOMO *+      MOCLDY    72  64  78 S10       29.96S
MARION +       CLOUDY    70  62  76 S8        29.99R
MT COMFORT *+  PTCLDY    70  66  88 S5        30.00S
SHELBYVILLE    MOCLDY    72  62  71 S9        30.00R
ZIONSVILLE +   MOCLDY    73  63  71 S8        29.99S

$$

INZ033-034-041-042-049-050-058-059-301100-
EAST CENTRAL INDIANA

CITY           SKY/WX    TMP DP  RH WIND       PRES   REMARKS
MUNCIE         CLEAR     72  61  68 S9        30.00R

$$

INZ060-061-067>069-081>083-085>088-301100-
SOUTHWEST INDIANA

CITY           SKY/WX    TMP DP  RH WIND       PRES   REMARKS
EVANSVILLE     CLOUDY    75  67  76 CALM      30.00S
WASHINGTON +   CLOUDY    73  68  85 S6        29.98F

$$

INZ062-063-066-070>080-084-089>092-301100-
SOUTH CENTRAL AND SOUTHEAST INDIANA

CITY           SKY/WX    TMP DP  RH WIND       PRES   REMARKS
BLOOMINGTON    CLOUDY    73  65  75 S7        30.00S

$$



USA.gov is the U.S. government's official web portal to all federal, state and local government web resources and services.